Location: Ortegal, La Coruña, España
(43.6156°N, 7.8471°W)
Time: 20:08:37
(UTC+02:00)

ISS - Pass Details

Date: 07 February 2019
Orbit: 411 x 421 km, 51.6° (Epoch: 14 October)

Event Time Altitude Azimuth Distance (km) Brightness Sun altitude
Rises 20:16:38 0° 299° (WNW) 2,377 1.0 -16.0°
Reaches altitude 10° 20:18:46 10° 295° (WNW) 1,510 0.0 -16.4°
Maximum altitude 20:22:05 53° 217° (SW) 526 -3.1 -17.0°
Enters shadow 20:23:50 24° 150° (SSE) 919 -2.3 -17.3°
